Flag for U.S.A. Weather past 2 weeks in South Bend, Indiana, U.S.A.

Now
58 °F

Sunny.


Feels Like: 56 °F
Forecast: 56 / 71 °F
Wind: 10 mph from North

Location: Michiana Regional Airport

Current Time: Jul 7, 2015 at 10:18:54 PM

Latest Report: Jul 7, 2015 at 9:54 PM


Visibility: 10 mi

Pressure: 30.04 "Hg

Humidity: 72%

Dew point: 49 °F

Location of South BendLocation

Historic Weather in South Bend — Graph

°F

South Bend temperature yesterday

Maximum temperature yesterday: 85 °F (at 3:54 PM)
Minimum temperature yesterday: 63 °F (at 5:54 AM)
Average temperature yesterday: 76 °F

Past Weeks' High & Low Weather Summary

 TemperatureHumidityPressure
High85 °F (Jul 6, 3:54 PM)97% (Jun 27, 12:54 AM)30.18 "Hg (Jun 27, 12:54 AM)
Low54 °F (Jun 28, 5:54 AM)36% (Jun 28, 2:54 PM)29.73 "Hg (Jun 23, 12:54 AM)
Average68 °F73%29.95 "Hg
* Reported Jun 22 8:54 PM — Jul 7 8:54 PM, South Bend, Weather by CustomWeather, © 2015

Note: Actual official high and low records may vary slightly from our data, if they occured in-between our weather recording intervals... More about our weather records

Advertising

South Bend weather history for previous 24 hours

 ConditionsComfort  
Time TempWeatherWind HumidityBarometerVisibility
8:54 PM
Tue, Jul 7
61 °FSunny.13 mph65%30.03 "Hg10 mi
7:54 PM63 °FSunny.18 mph56%30.02 "Hg10 mi
6:54 PM65 °FSunny.18 mph56%30.01 "Hg10 mi
5:54 PM66 °FSunny.20 mph56%30.00 "Hg10 mi
4:54 PM67 °FSunny.18 mph55%30.00 "Hg10 mi
3:54 PM69 °FSunny.14 mph55%29.98 "Hg10 mi
2:54 PM69 °FSunny.21 mph57%29.97 "Hg10 mi
1:54 PM70 °FMostly cloudy.16 mph64%29.95 "Hg10 mi
12:54 PM66 °FPartly sunny.18 mph81%29.93 "Hg10 mi
11:54 AM62 °FLow clouds.9 mph96%29.93 "Hg10 mi
10:54 AM62 °FMostly cloudy.15 mph93%29.92 "Hg10 mi
9:54 AM63 °FLight rain. Fog.12 mph93%29.90 "Hg6 mi
8:54 AM65 °FLight rain. Fog.8 mph97%29.88 "Hg4 mi
7:54 AM72 °FLight rain. Mostly cloudy.8 mph97%29.86 "Hg10 mi
7:03 AM73 °FPartly cloudy.6 mph94%29.87 "Hg10 mi
5:54 AM74 °FLight rain. Partly cloudy.10 mph91%29.83 "Hg10 mi
4:54 AM75 °FPassing clouds.7 mph90%29.83 "Hg10 mi
3:54 AM76 °FLight rain. Fog.10 mph88%29.85 "Hg3 mi
2:54 AM78 °FPassing clouds.13 mph79%29.85 "Hg10 mi
1:54 AM79 °FPassing clouds.9 mph77%29.85 "Hg10 mi
12:54 AM79 °FPassing clouds.12 mph77%29.86 "Hg10 mi
11:54 PM
Mon, Jul 6
79 °FPassing clouds.13 mph77%29.87 "Hg10 mi
10:54 PM78 °FClear.10 mph71%29.89 "Hg10 mi
Weather by CustomWeather, © 2015

See weather overviewHow to use our weather pages